This is the latest recevied weather packets stored in our database for station/object KT2UU-13. If no packets are shown the sender has not sent any weather packets the latest 10 day(s).
| Time | Temp. | Humidity | Pressure | Rain* | Wind** | Luminosity | Snow |
|---|---|---|---|---|---|---|---|
| 1777827711 | 16.11° C | 47% | 1021.7 hPa | 0 mm | - | - | - |
| 1777827409 | 15.56° C | 52% | 1021.7 hPa | 0 mm | - | - | - |
| 1777827105 | 15.56° C | 52% | 1021.7 hPa | 0 mm | - | - | - |
| 1777826802 | 15.56° C | 51% | 1021.8 hPa | 0 mm | - | - | - |
| 1777826499 | 15.56° C | 50% | 1021.7 hPa | 0 mm | - | - | - |
| 1777826195 | 15.56° C | 52% | 1021.9 hPa | 0 mm | - | - | - |
| 1777825893 | 16.11° C | 50% | 1021.8 hPa | 0 mm | - | - | - |
| 1777825590 | 16.11° C | 52% | 1022.1 hPa | 0 mm | - | - | - |
| 1777825288 | 15.56° C | 59% | 1022.1 hPa | 0 mm | - | - | - |
| 1777824985 | 15.56° C | 57% | 1022.2 hPa | 0 mm | - | - | - |
| 1777824680 | 15.56° C | 56% | 1022.2 hPa | 0 mm | - | - | - |
| 1777824378 | 15.56° C | 55% | 1022.2 hPa | 0 mm | - | - | - |
| 1777824073 | 15° C | 58% | 1022.3 hPa | 0 mm | - | - | - |
| 1777823770 | 15° C | 56% | 1022.3 hPa | 0 mm | - | - | - |
| 1777823467 | 14.44° C | 58% | 1022.1 hPa | 0 mm | - | - | - |
| 1777823164 | 14.44° C | 56% | 1022.3 hPa | 0 mm | - | - | - |
| 1777822862 | 15° C | 59% | 1022.4 hPa | 0 mm | - | - | - |
| 1777822560 | 15° C | 59% | 1022.1 hPa | 0 mm | - | - | - |
| 1777822257 | 15° C | 59% | 1022.3 hPa | 0 mm | - | - | - |
| 1777821954 | 14.44° C | 59% | 1022.2 hPa | 0 mm | - | - | - |
| 1777821652 | 15° C | 59% | 1022.5 hPa | 0 mm | - | - | - |
| 1777821350 | 15° C | 59% | 1022.4 hPa | 0 mm | - | - | - |
| 1777821046 | 14.44° C | 61% | 1022.5 hPa | 0 mm | - | - | - |
| 1777820743 | 14.44° C | 62% | 1022.5 hPa | 0 mm | - | - | - |
| 1777820439 | 14.44° C | 59% | 1022.4 hPa | 0 mm | - | - | - |
* Rain latest hour (hover to see other rain measurements)
** Current wind speed in m/s (hover to see current wind gust speed)